EW3803 Weather Reports


time (UTC)temp
C
wind
direction
speed
KPH
gust
KPH
rain 1hr
cm
rain 24hr
cm
rain mn
cm
humidity
%
barometer
mb
20200220081602 11 129 0.0 6.4 0.00 0.00 0.00 85 1022.9
20200220080056 11 129 1.6 4.8 0.00 0.00 0.00 85 1022.8
20200220074550 10 129 4.8 11.3 0.00 0.00 0.00 85 1022.6
20200220073102 10 129 1.6 6.4 0.00 0.00 0.00 84 1022.7
20200220071537 11 129 3.2 4.8 0.00 0.00 0.00 83 1022.5
20200220070103 11 129 0.0 6.4 0.00 0.00 0.00 83 1022.4
20200220064540 11 129 3.2 4.8 0.00 0.00 0.00 82 1022.4
20200220063027 11 129 1.6 8.0 0.00 0.00 0.00 82 1022.4
20200220061607 11 129 1.6 8.0 0.00 0.00 0.00 82 1022.4
20200220060036 11 129 4.8 8.0 0.00 0.00 0.00 82 1022.5
20200220054625 11 129 1.6 4.8 0.00 0.00 0.00 82 1022.4
20200220053021 11 129 1.6 11.3 0.00 0.00 0.00 81 1022.4
20200220051525 11 121 6.4 11.3 0.00 0.00 0.00 81 1022.5
20200220050052 11 121 1.6 11.3 0.00 0.00 0.00 81 1022.6
20200220044547 12 106 1.6 4.8 0.00 0.00 0.00 80 1022.7
20200220043042 12 106 1.6 6.4 0.00 0.00 0.00 79 1022.9
20200220041541 12 106 3.2 4.8 0.00 0.00 0.00 79 1022.9
20200220040054 12 106 0.0 1.6 0.00 0.00 0.00 78 1023.2
20200220034519 12 106 0.0 4.8 0.00 0.00 0.00 77 1023.2
20200220033024 12 106 3.2 12.9 0.00 0.00 0.00 76 1023.2
20200220031503 12 122 6.4 14.5 0.00 0.00 0.00 76 1023.2
20200220030129 12 125 6.4 12.9 0.00 0.00 0.00 76 1023.4
20200220024742 12 141 8.0 12.9 0.00 0.00 0.00 77 1023.5
20200220023141 12 153 8.0 14.5 0.00 0.00 0.00 77 1023.6
20200220021642 12 148 3.2 6.4 0.00 0.00 0.00 75 1023.9
20200220020150 13 112 1.6 9.7 0.00 0.00 0.00 74 1023.8
20200220014633 13 107 3.2 16.1 0.00 0.00 0.00 73 1023.9
20200220013112 13 98 6.4 12.9 0.00 0.00 0.00 73 1024.1
20200220011635 13 105 4.8 9.7 0.00 0.00 0.00 70 1024.3
20200220010102 14 93 4.8 12.9 0.00 0.00 0.00 68 1024.3
20200220004545 14 107 8.0 16.1 0.00 0.00 0.00 68 1024.5
20200220003231 14 117 8.0 16.1 0.00 0.00 0.00 68 1024.5
20200220001555 14 95 9.7 16.1 0.00 0.00 0.00 65 1024.6
20200220000046 15 90 9.7 19.3 0.00 0.00 0.00 64 1024.7
20200219234549 15 109 8.0 16.1 0.00 0.00 0.00 63 1024.8
20200219233102 15 107 9.7 17.7 0.00 0.00 0.00 64 1024.9
20200219231548 15 96 6.4 14.5 0.00 0.00 0.00 64 1025.1
20200219230033 15 98 8.0 16.1 0.00 0.00 0.00 65 1025.2
20200219224525 15 115 8.0 17.7 0.00 0.00 0.00 66 1025.2
20200219223034 15 116 12.9 17.7 0.00 0.00 0.00 65 1025.4
20200219221606 15 115 12.9 17.7 0.00 0.00 0.00 65 1025.4
20200219220047 15 115 12.9 19.3 0.00 0.00 0.00 65 1025.3
20200219214516 15 99 11.3 19.3 0.00 0.00 0.00 65 1025.4
20200219213051 15 98 12.9 22.5 0.00 0.00 0.00 66 1025.4
20200219211532 15 123 12.9 20.9 0.00 0.00 0.00 67 1025.5
20200219210027 15 109 9.7 17.7 0.00 0.00 0.00 68 1025.5
20200219204510 15 82 9.7 16.1 0.00 0.00 0.00 68 1025.5
20200219203059 15 87 9.7 16.1 0.00 0.00 0.00 69 1025.5
20200219201512 15 93 9.7 17.7 0.00 0.00 0.00 70 1025.6
20200219200013 15 91 4.8 11.3 0.00 0.00 0.00 72 1025.6
20200219194507 15 63 4.8 12.9 0.00 0.00 0.00 76 1025.6
20200219191524 14 350 1.6 4.8 0.00 0.00 0.00 87 1025.7
20200219190007 14 313 3.2 6.4 0.00 0.00 0.00 85 1025.8
20200219184504 15 313 1.6 4.8 0.00 0.00 0.00 83 1025.8
20200219183006 15 323 3.2 6.4 0.00 0.00 0.00 79 1025.8
20200219181508 16 312 0.0 3.2 0.00 0.00 0.00 75 1025.7
20200219180012 17 312 0.0 3.2 0.00 0.00 0.00 75 1025.7
20200219174502 17 331 1.6 6.4 0.00 0.00 0.00 73 1025.7
20200219173008 17 327 3.2 6.4 0.00 0.00 0.00 73 1025.7
20200219171502 17 325 8.0 12.9 0.00 0.00 0.00 72 1025.7
20200219170317 17 338 4.8 14.5 0.00 0.00 0.00 73 1025.8
20200219164705 18 50 6.4 12.9 0.00 0.00 0.00 70 1025.7
20200219163132 18 351 3.2 14.5 0.00 0.00 0.00 72 1025.7
20200219161731 18 351 8.0 12.9 0.00 0.00 0.00 70 1025.8
20200219160139 18 329 3.2 14.5 0.00 0.00 0.00 70 1026.0
20200219154731 20 302 3.2 20.9 0.00 0.00 0.00 66 1026.1
20200219153124 20 94 4.8 17.7 0.00 0.00 0.00 62 1026.2
20200219151557 20 44 4.8 16.1 0.00 0.00 0.00 60 1026.3
20200219150123 20 67 8.0 19.3 0.00 0.00 0.00 57 1026.5
20200219144747 20 9 4.8 17.7 0.00 0.00 0.00 64 1026.6
20200219143103 20 57 9.7 16.1 0.00 0.00 0.00 56 1026.8
20200219141615 19 315 3.2 16.1 0.00 0.00 0.00 63 1027.0
20200219140132 18 323 9.7 16.1 0.00 0.00 0.00 68 1027.3
20200219134636 18 327 6.4 14.5 0.00 0.00 0.00 69 1027.6
20200219133057 17 329 11.3 19.3 0.00 0.00 0.00 70 1027.9
20200219131530 17 315 11.3 17.7 0.00 0.00 0.00 73 1028.2
20200219130059 16 326 9.7 20.9 0.00 0.00 0.00 75 1028.5
20200219124524 16 346 12.9 22.5 0.00 0.00 0.00 75 1028.9
20200219124502 15 351 14.5 22.5 0.00 0.00 0.00 74 1028.9
20200219123040 15 336 12.9 22.5 0.00 0.00 0.00 77 1029.1
20200219121519 15 351 11.3 19.3 0.00 0.00 0.00 75 1029.4
20200219120021 14 316 11.3 19.3 0.00 0.00 0.00 78 1029.5
20200219114519 13 360 12.9 22.5 0.00 0.00 0.00 78 1029.8
20200219113046 13 302 12.9 19.3 0.00 0.00 0.00 79 1029.8
20200219111506 12 318 11.3 17.7 0.00 0.00 0.00 79 1029.9
20200219110001 12 302 11.3 17.7 0.00 0.00 0.00 79 1030.0
20200219104924 12 326 9.7 14.5 0.00 0.00 0.00 80 1030.1
20200219103131 12 360 6.4 14.5 0.00 0.00 0.00 79 1030.1
20200219101636 12 300 6.4 9.7 0.00 0.00 0.00 77 1030.2
20200219100157 11 26 4.8 9.7 0.00 0.00 0.00 77 1030.2
20200219094617 11 39 4.8 8.0 0.00 0.00 0.00 80 1030.1
20200219093115 10 39 3.2 6.4 0.00 0.00 0.00 85 1030.2
20200219091712 8 39 0.0 4.8 0.00 0.00 0.00 87 1030.1
20200219090138 7 39 1.6 4.8 0.00 0.00 0.00 89 1030.2
20200219084602 7 39 1.6 6.4 0.00 0.00 0.00 89 1030.1
20200219083150 6 39 3.2 6.4 0.00 0.00 0.00 89 1029.9